Location: Grieser Field
(39.7333°N, 81.7975°W)
Time: 17:09:48
(UTC-05:00)

Meteor 2-1 Rocket - Visible Passes

Search period start: 18 January 2017 00:00
Search period end: 28 January 2017 00:00
Orbit: 829 x 908 km, 81.3° (Epoch: 17 January)

Date Brightness Start Highest point End Pass type
(mag) Time Alt. Az. Time Alt. Az. Time Alt. Az.
18 Jan 4.4 06:07:09 10° S 06:12:43 73° E 06:18:25 10° NNE visible
18 Jan 7.1 18:33:55 10° NW 18:38:04 20° W 18:42:13 10° SW visible
19 Jan 4.4 06:00:29 10° S 06:06:03 75° E 06:11:46 10° NNE visible
19 Jan 7.1 18:27:18 10° NW 18:31:23 20° W 18:35:29 10° SW visible
20 Jan 4.4 05:53:47 10° S 05:59:22 76° E 06:05:07 10° NNE visible
20 Jan 7.1 18:20:42 10° NW 18:24:43 19° W 18:28:44 10° SW visible
21 Jan 4.3 05:47:06 10° S 05:52:42 78° E 05:58:28 10° NNE visible
21 Jan 7.1 18:14:05 10° NW 18:18:03 19° W 18:22:00 10° SW visible
22 Jan 4.3 05:40:25 10° S 05:46:02 80° E 05:51:49 10° NNE visible
22 Jan 7.1 18:07:29 10° NW 18:11:22 18° W 18:15:15 10° SW visible
23 Jan 4.3 05:33:44 10° S 05:39:22 82° E 05:45:10 10° N visible
23 Jan 7.1 18:00:53 10° NW 18:04:42 18° W 18:08:30 10° SW visible
24 Jan 4.2 05:27:03 10° S 05:32:42 83° E 05:38:30 10° N visible
25 Jan 4.2 05:20:23 10° S 05:26:02 85° E 05:31:51 10° N visible
25 Jan 5.9 07:07:42 10° W 07:10:09 13° WNW 07:12:36 10° NW visible
26 Jan 4.2 05:13:42 10° S 05:19:22 87° E 05:25:12 10° N visible
26 Jan 5.9 07:01:10 10° W 07:03:30 12° WNW 07:05:51 10° NW visible
27 Jan 7.2 03:29:46 10° E 03:30:25 10° E 03:31:03 10° ENE visible
27 Jan 4.1 05:12:06 73° S 05:12:41 88° E 05:18:32 10° N visible
27 Jan 5.9 06:54:39 10° W 06:56:51 12° WNW 06:59:06 10° NW visible
